Miscellaneous Local Product
Issued by NWS Hastings, NE

Home | Current Version | Previous Version | Graphics & Text | Print | Product List | Glossary On
Versions: 1 2 3 4 5 6 7 8 9 10 11 12 13 14 15 16 17 18 19 20 21 22 23 24 25 26 27 28 29 30 31 32 33 34 35 36 37 38 39 40 41 42 43 44 45 46 47 48 49 50
000
AXUS43 KGID 271602
MISGRI

GID CWA HOURLY WEATHER ROUNDUP
NATIONAL WEATHER SERVICE HASTINGS NE
1100 AM CDT TUE JUN 27 2017

NOTE: "FAIR" INDICATES FEW OR NO CLOUDS BELOW 12,000 FEET WITH NO
SIGNIFICANT WEATHER AND/OR OBSTRUCTIONS TO VISIBILITY.

...SOUTH CENTRAL NEBRASKA...

CITY           SKY/WX    TMP DP  RH WIND       PRES   REMARKS
GRAND ISLAND   MOSUNNY   72  58  61 SE18G26   29.99F
HASTINGS       SUNNY     71  58  63 SE17G29   29.99F
KEARNEY        SUNNY     72  57  60 SE20      29.97F
ORD            SUNNY     72  51  47 SE16G25   29.95F
YORK           SUNNY     72  57  60 S16G23    30.01F
AURORA         SUNNY     72  57  59 SE18G25   29.99F
LEXINGTON      MOSUNNY   74  60  62 SE18      29.95F
HOLDREGE       SUNNY     72  59  63 SE18G24   29.96F
HEBRON         MOSUNNY   73  61  68 SE14      30.01F

...NEBRASKA PANHANDLE...

CITY           SKY/WX    TMP DP  RH WIND       PRES   REMARKS
CHADRON        SUNNY     76  57  51 S20       29.75F
ALLIANCE       SUNNY     74  57  55 S17G29    29.85F
SCOTTSBLUFF    SUNNY     77  58  51 S13       29.82F
SIDNEY         SUNNY     73  58  59 S13G20    29.91F

...WESTERN AND NORTH CENTRAL NEBRASKA...

CITY           SKY/WX    TMP DP  RH WIND       PRES   REMARKS
VALENTINE      SUNNY     77  54  44 S26G38    29.85F
AINSWORTH      SUNNY     73  57  58 S25       29.90F
ONEILL         SUNNY     72  54  52 S18G25    29.96F
BROKEN BOW     SUNNY     72  57  59 S17G28    29.94F
IMPERIAL       CLOUDY    65  59  81 S15       29.93F
NORTH PLATTE   CLOUDY    69  60  73 SE14      29.92F
MCCOOK         CLOUDY    65  62  90 SE14      29.93F

...EASTERN NEBRASKA...

CITY           SKY/WX    TMP DP  RH WIND       PRES   REMARKS
NORFOLK        SUNNY     71  53  52 SE21G28   29.99F
SO SIOUX CITY  SUNNY     72  51  47 S16       30.04F
TEKAMAH        SUNNY     74  53  48 S14G24    30.04F
COLUMBUS       SUNNY     72  54  53 SE15      30.01F
ALBION         SUNNY     72  52  50 S15G26    29.99F
OMAHA EPPLEY   MOSUNNY   72  55  55 S17       30.05F
OFFUTT AFB     SUNNY     72  59  62 SE14      30.05F
MILLARD        SUNNY     73  60  64 SE12      30.05F
LINCOLN        SUNNY     72  58  61 SE18      30.03F
NEBRASKA CITY  SUNNY     69  59  70 SE14      30.07F
BEATRICE       SUNNY     70  61  73 SE16      30.03F
FALLS CITY     SUNNY     71  59  65 SE13      30.06F

...NORTHERN KANSAS...

CITY           SKY/WX    TMP DP  RH WIND       PRES   REMARKS
GOODLAND       PTSUNNY   67  62  84 SE16      29.94F
HILL CITY      CLOUDY    69  65  86 SE9       29.95F FOG
NORTON         CLOUDY    63  59  88 SE10      29.95  FOG
PHILLIPSBURG   CLOUDY    72  63  73 SE13G18   29.96F
SMITH CENTER   CLOUDY    72  61  68 SE14      29.98F
HAYS           PTSUNNY   76  67  73 SE16      29.95F
RUSSELL        SUNNY     77  65  66 SE18      29.95F
CONCORDIA      PTSUNNY   76  63  64 SE17      30.00F
SALINA         PTSUNNY   76  65  68 SE16      30.00F
TOPEKA         PTSUNNY   72  64  76 SE10      30.07F



USA.gov is the U.S. government's official web portal to all federal, state and local government web resources and services.